星链-4311 (STARLINK-4311 )

导读

STARLINK-4311是美国SpaceX公司星链(Starlink)星座的一颗卫星,于2022年7月11日发射。星链星座旨在为全球提供高速低时延宽带互联网服务,该星属于低地球轨道卫星,运行于约550公里高度轨道,搭载Ku/Ka波段通信载荷,配备霍尔推进器,具备自主避撞能力,寿命结束后会主动离轨在大气层烧毁,服务全球偏远及移动场景的互联网接入需求。

Basic Information
目录编号:
53062
目录名称:
STARLINK-4311
国际标识:
2022-077V
轨道中心:
EARTH
卫星名称:
星链-4311
卫星全名:
星链-4311 (STARLINK-4311 )
卫星状态:
在轨 (已飞行1516 天)
发射日期:
2022-07-11 UTC
国别 :
美国 (US)
星等 :
--
Orbit Information
数据来源 国际轨道数据
星历时间: 2026-09-04T16:00:02+0800
4小时前
查看轨道信息
半长轴: 6855.492km
偏心率: 0.0000808
轨道倾角: 97.285°
近地点辐角 75.668°
升交点赤经 62.378°
平近点角 285.103°
近地点: 476.801km
远地点: 477.909km
周期: 94.149分钟
每日圈数: 15.294836
Detailed Information
固有亮度:
5
最大亮度:
2.5
卫星平台:
Starlink v1.5
覆盖范围:
全球
运营商:
太空探索技术公司
运营商所在国:
美国
制造商(研发单位):
太空探索技术公司
制造商所在国:
美国
使用方式:
暂无
Satellite Introduction
星链(Starlink)计划是由太空探索技术公司(SpaceX)提出的一个巨型低轨卫星互联网星座项目,计划在2019年至2024年间在太空搭建由约1.2万颗卫星组成的“星链”网络,其中1584颗将部署在地球上空550千米处的近地轨道,并从2020年开始工作。该卫星仍在工作。
2D Orbit Map
3D Orbit Map
Orbit Altitude Analysis Chart
Orbit Inclination Analysis Chart
Orbit Comprehensive Analysis Chart
View Comprehensive Chart
Conjunction Data List
Event ID Objects TCA Miss Dist (km) Collision Risk Probability Collision Risk Index (CRI) Action
CDM_260904-171105-114205-306221
2026-09-04T
17:11:24+0000
0.421 km
远距离
2.721543E-4 高风险 0.84
CDM_260906-093805-306206-653321
2026-09-06T
09:38:53+0000
0.486 km
远距离
1.84278E-4 高风险 0.8
CDM_260905-054805-306205-486321
2026-09-05T
05:48:28+0000
0.910 km
远距离
3.437468E-5 中风险 0.66
CDM_260904-085305-306205-790621
2026-09-04T
08:53:59+0000
1.236 km
极远距离
8.436442E-6 低风险 0.54
CDM_260906-031805-306206-732721
2026-09-06T
03:18:05+0000
1.360 km
极远距离
6.138252E-6 低风险 0.51
CDM_260830-133105-306206-409021
OBJECT D (64090)
2026-08-30T
13:31:29+0000
1.733 km
极远距离
3.632072E-6 低风险 0.46
CDM_260904-172005-306205-612221
2026-09-04T
17:20:59+0000
1.829 km
极远距离
3.552302E-6 低风险 0.46
CDM_260906-062005-306206-401121
2026-09-06T
06:20:28+0000
1.796 km
极远距离
2.367755E-6 低风险 0.42
CDM_260905-152205-306206-363621
2026-09-05T
15:22:57+0000
1.808 km
极远距离
2.324309E-6 低风险 0.42
CDM_260905-195505-306206-680721
2026-09-05T
19:55:48+0000
2.212 km
极远距离
2.031151E-6 低风险 0.41